Weather History for KDDH - February, 2013

Change the Weather History Date:

Tuesday, February 5, 2013

  Actual Average Record
Temperature  
Mean Temperature 19 °F 23 °F  
Max Temperature 27 °F 33 °F 30 °F (2015)
Min Temperature 10 °F 13 °F -1 °F (2015)
Degree Days  
Heating Degree Days 46 42  
Month to date heating degree days 227 212  
Since 1 July heating degree days 3915 4343  
Cooling Degree Days 0 0  
Month to date cooling degree days 0 0  
Year to date cooling degree days 0 0  
Moisture  
Dew Point 9 °F    
Average Humidity 65    
Maximum Humidity 88    
Minimum Humidity 42    
Precipitation  
Precipitation 0.00 in 0.07 in 0.65 in (2014)
Month to date precipitation T 0.33  
Year to date precipitation 1.45 3.08  
Sea Level Pressure  
Sea Level Pressure 29.93 in    
Wind  
Wind Speed 1 mph (SSW)    
Max Wind Speed 7 mph    
Max Gust Speed 10 mph    
Visibility 10 miles    
Events      
T = Trace of Precipitation, MM = Missing Value Source: NWS Daily Summary

Daily Weather History Graph

Daily Weather History Graph

Search for Another Location

Airport or City:

Trip Planner

Search our weather history database for the weather conditions in past years. The results will help you decide how hot, cold, wet, or windy it might be!

Date:

Astronomy

Feb. 05, 2013 Rise Set
Actual Time 7:03 AM EST 5:11 PM EST
Civil Twilight 6:33 AM EST 5:41 PM EST
Nautical Twilight 5:59 AM EST 6:15 PM EST
Astronomical Twilight 5:26 AM EST 6:48 PM EST
Moon 2:44 AM EST (2/5) 12:23 PM EST (2/5)
Length of Visible Light 11h 08m
Length of Day
10h 08m
Waning Crescent, 27% of the Moon is Illuminated
Feb 5
Waning Crescent
Feb 10
New
Feb 17
First Quarter
Feb 25
Full
Mar 4
Last Quarter

Hourly Weather History & Observations

Time (EST) Temp. Windchill Dew Point Humidity Pressure Visibility Wind Dir Wind Speed Gust Speed Precip Events Conditions
12:54 AM 12.9 °F 6.9 °F 5.0 °F 71% 29.94 in 10.0 mi SW 3.5 mph - N/A   Clear
1:54 AM 10.9 °F - 6.1 °F 81% 29.94 in 10.0 mi Calm Calm - N/A   Overcast
2:54 AM 14.0 °F - 7.0 °F 74% 29.94 in 10.0 mi Calm Calm - N/A   Overcast
3:54 AM 12.9 °F - 8.1 °F 81% 29.94 in 10.0 mi Calm Calm - N/A   Overcast
4:54 AM 12.9 °F - 8.1 °F 81% 29.94 in 10.0 mi Calm Calm - N/A   Overcast
5:54 AM 14.0 °F - 10.0 °F 84% 29.95 in 10.0 mi Calm Calm - N/A   Overcast
7:54 AM 12.9 °F - 9.0 °F 84% 29.99 in 10.0 mi Calm Calm - N/A   Overcast
8:54 AM 17.1 °F - 10.0 °F 74% 30.00 in 10.0 mi Calm Calm - N/A   Clear
9:54 AM 19.0 °F - 8.1 °F 62% 30.01 in 10.0 mi Calm Calm - N/A   Clear
10:54 AM 19.9 °F - 6.1 °F 55% 30.00 in 10.0 mi Calm Calm - N/A   Clear
11:54 AM 21.9 °F - 6.1 °F 51% 29.98 in 10.0 mi Calm Calm - N/A   Clear
12:54 PM 24.1 °F 18.2 °F 7.0 °F 48% 29.95 in 10.0 mi South 4.6 mph - N/A   Clear
1:54 PM 25.0 °F - 7.0 °F 46% 29.93 in 10.0 mi Calm Calm - N/A   Clear
2:54 PM 26.1 °F - 7.0 °F 44% 29.92 in 10.0 mi Calm Calm - N/A   Clear
3:54 PM 26.1 °F - 7.0 °F 44% 29.91 in 10.0 mi Calm Calm - N/A   Clear
4:54 PM 26.1 °F - 8.1 °F 47% 29.90 in 10.0 mi Calm Calm - N/A   Clear
5:54 PM 24.1 °F - 8.1 °F 51% 29.89 in 10.0 mi Calm Calm - N/A   Mostly Cloudy
6:54 PM 23.0 °F - 10.9 °F 60% 29.89 in 10.0 mi Calm Calm - N/A   Scattered Clouds
7:54 PM 21.9 °F - 12.9 °F 68% 29.91 in 10.0 mi Calm Calm - N/A   Overcast
8:54 PM 24.1 °F - 12.9 °F 62% 29.90 in 10.0 mi Calm Calm - N/A   Overcast
9:54 PM 23.0 °F - 12.9 °F 65% 29.88 in 10.0 mi Calm Calm - N/A   Partly Cloudy
10:31 PM 24.8 °F - 14.0 °F 64% 29.86 in 10.0 mi Calm Calm - N/A   Overcast
10:54 PM 25.0 °F - 15.1 °F 66% 29.88 in 10.0 mi Calm Calm - N/A   Overcast
11:33 PM 24.8 °F - 12.2 °F 59% 29.86 in 10.0 mi Calm Calm - N/A   Overcast
11:54 PM 24.1 °F 19.7 °F 14.0 °F 65% 29.89 in 8.0 mi North 3.5 mph - N/A   Overcast